Location: St. Louis
(38.6270°N, 90.1994°W)
Time: 06:02:45
(UTC-05:00)

deb Delta - Pass Details

Date: 07 July 2022
Orbit: 1084 x 1202 km, 99.8° (Epoch: 16 August)

Event Time Altitude Azimuth Distance (km) Brightness Sun altitude
Exits shadow 00:50:42 22° 104° (ESE) 2,336 ? -28.7°
Maximum altitude 00:53:55 32° 63° (ENE) 1,941 ? -28.7°
Drops below altitude 10° 00:59:59 10° 5° (N) 3,115 ? -28.8°
Sets 01:02:52 0° 356° (N) 4,067 ? -28.8°
